Time,TemperatureF,DewpointF,PressureIn,WindDirection,WindDirectionDegrees,WindSpeedMPH,WindSpeedGustMPH,Humidity,HourlyPrecipIn,Conditions,Clouds,dailyrainin,SoftwareType,DateUTC
2013-02-03 00:00:00,20.0,-99.9,-100.00,WSW,258,5.0,6.0,-999,-99.99,,,-99.99,,2013-02-03 05:00:00,
2013-02-03 00:23:00,20.0,-99.9,-100.00,WSW,258,5.0,6.0,-999,-99.99,,,-99.99,,2013-02-03 05:23:00,
2013-02-03 00:32:00,20.0,-99.9,-100.00,WSW,258,5.0,6.0,-999,-99.99,,,-99.99,,2013-02-03 05:32:00,
2013-02-03 00:42:00,20.0,-99.9,-100.00,WSW,258,5.0,6.0,-999,-99.99,,,-99.99,,2013-02-03 05:42:00,
2013-02-03 00:53:00,20.0,-99.9,-100.00,WSW,258,5.0,6.0,-999,-99.99,,,-99.99,,2013-02-03 05:53:00,
2013-02-03 01:00:00,20.0,-99.9,-100.00,West,260,7.0,9.0,-999,-99.99,,,-99.99,,2013-02-03 06:00:00,
2013-02-03 01:22:00,20.0,-99.9,-100.00,West,260,7.0,9.0,-999,-99.99,,,-99.99,,2013-02-03 06:22:00,
2013-02-03 01:32:00,20.0,-99.9,-100.00,West,260,7.0,9.0,-999,-99.99,,,-99.99,,2013-02-03 06:32:00,
2013-02-03 01:42:00,20.0,-99.9,-100.00,West,260,7.0,9.0,-999,-99.99,,,-99.99,,2013-02-03 06:42:00,
2013-02-03 01:52:00,20.0,-99.9,-100.00,West,260,7.0,9.0,-999,-99.99,,,-99.99,,2013-02-03 06:52:00,
2013-02-03 02:00:00,20.0,-99.9,-100.00,WSW,255,6.0,7.0,-999,-99.99,,,-99.99,,2013-02-03 07:00:00,
2013-02-03 02:22:00,20.0,-99.9,-100.00,WSW,255,6.0,7.0,-999,-99.99,,,-99.99,,2013-02-03 07:22:00,
2013-02-03 02:32:00,20.0,-99.9,-100.00,WSW,255,6.0,7.0,-999,-99.99,,,-99.99,,2013-02-03 07:32:00,
2013-02-03 02:42:00,20.0,-99.9,-100.00,WSW,255,6.0,7.0,-999,-99.99,,,-99.99,,2013-02-03 07:42:00,
2013-02-03 02:53:00,20.0,-99.9,-100.00,WSW,255,6.0,7.0,-999,-99.99,,,-99.99,,2013-02-03 07:53:00,
2013-02-03 03:00:00,19.0,-99.9,-100.00,WSW,254,5.0,6.0,-999,-99.99,,,-99.99,,2013-02-03 08:00:00,
2013-02-03 03:22:00,19.0,-99.9,-100.00,WSW,254,5.0,6.0,-999,-99.99,,,-99.99,,2013-02-03 08:22:00,
2013-02-03 03:32:00,19.0,-99.9,-100.00,WSW,254,5.0,6.0,-999,-99.99,,,-99.99,,2013-02-03 08:32:00,
2013-02-03 03:42:00,19.0,-99.9,-100.00,WSW,254,5.0,6.0,-999,-99.99,,,-99.99,,2013-02-03 08:42:00,
2013-02-03 03:52:00,19.0,-99.9,-100.00,WSW,254,5.0,6.0,-999,-99.99,,,-99.99,,2013-02-03 08:52:00,
2013-02-03 04:00:00,19.0,-99.9,-100.00,West,263,4.0,7.0,-999,-99.99,,,-99.99,,2013-02-03 09:00:00,
2013-02-03 04:22:00,19.0,-99.9,-100.00,West,263,4.0,7.0,-999,-99.99,,,-99.99,,2013-02-03 09:22:00,
2013-02-03 04:32:00,19.0,-99.9,-100.00,West,263,4.0,7.0,-999,-99.99,,,-99.99,,2013-02-03 09:32:00,
2013-02-03 04:42:00,19.0,-99.9,-100.00,West,263,4.0,7.0,-999,-99.99,,,-99.99,,2013-02-03 09:42:00,
2013-02-03 04:52:00,19.0,-99.9,-100.00,West,263,4.0,7.0,-999,-99.99,,,-99.99,,2013-02-03 09:52:00,
2013-02-03 05:00:00,19.0,-99.9,-100.00,SW,225,5.0,7.0,-999,-99.99,,,-99.99,,2013-02-03 10:00:00,
2013-02-03 05:22:00,19.0,-99.9,-100.00,SW,225,5.0,7.0,-999,-99.99,,,-99.99,,2013-02-03 10:22:00,
2013-02-03 05:32:00,19.0,-99.9,-100.00,SW,225,5.0,7.0,-999,-99.99,,,-99.99,,2013-02-03 10:32:00,
2013-02-03 05:42:00,19.0,-99.9,-100.00,SW,225,5.0,7.0,-999,-99.99,,,-99.99,,2013-02-03 10:42:00,
2013-02-03 05:53:00,19.0,-99.9,-100.00,SW,225,5.0,7.0,-999,-99.99,,,-99.99,,2013-02-03 10:53:00,
2013-02-03 06:00:00,19.0,-99.9,-100.00,WSW,246,6.0,8.0,-999,-99.99,,,-99.99,,2013-02-03 11:00:00,
2013-02-03 06:22:00,19.0,-99.9,-100.00,WSW,246,6.0,8.0,-999,-99.99,,,-99.99,,2013-02-03 11:22:00,
2013-02-03 06:32:00,19.0,-99.9,-100.00,WSW,246,6.0,8.0,-999,-99.99,,,-99.99,,2013-02-03 11:32:00,
2013-02-03 06:42:00,19.0,-99.9,-100.00,WSW,246,6.0,8.0,-999,-99.99,,,-99.99,,2013-02-03 11:42:00,
2013-02-03 06:52:00,19.0,-99.9,-100.00,WSW,246,6.0,8.0,-999,-99.99,,,-99.99,,2013-02-03 11:52:00,
2013-02-03 07:00:00,18.0,-99.9,-100.00,WSW,240,5.0,7.0,-999,-99.99,,,-99.99,,2013-02-03 12:00:00,
2013-02-03 07:22:00,18.0,-99.9,-100.00,WSW,240,5.0,7.0,-999,-99.99,,,-99.99,,2013-02-03 12:22:00,
2013-02-03 07:33:00,18.0,-99.9,-100.00,WSW,240,5.0,7.0,-999,-99.99,,,-99.99,,2013-02-03 12:33:00,
2013-02-03 07:42:00,18.0,-99.9,-100.00,WSW,240,5.0,7.0,-999,-99.99,,,-99.99,,2013-02-03 12:42:00,
2013-02-03 07:53:00,18.0,-99.9,-100.00,WSW,240,5.0,7.0,-999,-99.99,,,-99.99,,2013-02-03 12:53:00,
2013-02-03 08:00:00,18.0,-99.9,-100.00,WSW,249,4.0,5.0,-999,-99.99,,,-99.99,,2013-02-03 13:00:00,
2013-02-03 08:22:00,18.0,-99.9,-100.00,WSW,249,4.0,5.0,-999,-99.99,,,-99.99,,2013-02-03 13:22:00,
2013-02-03 08:32:00,18.0,-99.9,-100.00,WSW,249,4.0,5.0,-999,-99.99,,,-99.99,,2013-02-03 13:32:00,
2013-02-03 08:42:00,18.0,-99.9,-100.00,WSW,249,4.0,5.0,-999,-99.99,,,-99.99,,2013-02-03 13:42:00,
2013-02-03 08:53:00,18.0,-99.9,-100.00,WSW,249,4.0,5.0,-999,-99.99,,,-99.99,,2013-02-03 13:53:00,
2013-02-03 09:00:00,19.0,-99.9,-100.00,WSW,248,8.0,10.0,-999,-99.99,,,-99.99,,2013-02-03 14:00:00,
2013-02-03 09:22:00,19.0,-99.9,-100.00,WSW,248,8.0,10.0,-999,-99.99,,,-99.99,,2013-02-03 14:22:00,
2013-02-03 09:32:00,19.0,-99.9,-100.00,WSW,248,8.0,10.0,-999,-99.99,,,-99.99,,2013-02-03 14:32:00,
2013-02-03 09:43:00,19.0,-99.9,-100.00,WSW,248,8.0,10.0,-999,-99.99,,,-99.99,,2013-02-03 14:43:00,
2013-02-03 09:53:00,19.0,-99.9,-100.00,WSW,248,8.0,10.0,-999,-99.99,,,-99.99,,2013-02-03 14:53:00,
2013-02-03 10:00:00,21.0,-99.9,-100.00,WSW,258,9.0,11.0,-999,-99.99,,,-99.99,,2013-02-03 15:00:00,
2013-02-03 10:23:00,21.0,-99.9,-100.00,WSW,258,9.0,11.0,-999,-99.99,,,-99.99,,2013-02-03 15:23:00,
2013-02-03 10:33:00,21.0,-99.9,-100.00,WSW,258,9.0,11.0,-999,-99.99,,,-99.99,,2013-02-03 15:33:00,
2013-02-03 10:42:00,21.0,-99.9,-100.00,WSW,258,9.0,11.0,-999,-99.99,,,-99.99,,2013-02-03 15:42:00,
2013-02-03 10:52:00,21.0,-99.9,-100.00,WSW,258,9.0,11.0,-999,-99.99,,,-99.99,,2013-02-03 15:52:00,
2013-02-03 11:00:00,22.0,-99.9,-100.00,WNW,284,8.0,13.0,-999,-99.99,,,-99.99,,2013-02-03 16:00:00,
2013-02-03 11:22:00,22.0,-99.9,-100.00,WNW,284,8.0,13.0,-999,-99.99,,,-99.99,,2013-02-03 16:22:00,
2013-02-03 11:33:00,22.0,-99.9,-100.00,WNW,284,8.0,13.0,-999,-99.99,,,-99.99,,2013-02-03 16:33:00,
2013-02-03 11:42:00,22.0,-99.9,-100.00,WNW,284,8.0,13.0,-999,-99.99,,,-99.99,,2013-02-03 16:42:00,
2013-02-03 11:52:00,22.0,-99.9,-100.00,WNW,284,8.0,13.0,-999,-99.99,,,-99.99,,2013-02-03 16:52:00,
2013-02-03 12:00:00,23.0,-99.9,-100.00,NW,311,7.0,10.0,-999,-99.99,,,-99.99,,2013-02-03 17:00:00,
2013-02-03 12:22:00,23.0,-99.9,-100.00,NW,311,7.0,10.0,-999,-99.99,,,-99.99,,2013-02-03 17:22:00,
2013-02-03 12:32:00,23.0,-99.9,-100.00,NW,311,7.0,10.0,-999,-99.99,,,-99.99,,2013-02-03 17:32:00,
2013-02-03 12:42:00,23.0,-99.9,-100.00,NW,311,7.0,10.0,-999,-99.99,,,-99.99,,2013-02-03 17:42:00,
2013-02-03 12:53:00,23.0,-99.9,-100.00,NW,311,7.0,10.0,-999,-99.99,,,-99.99,,2013-02-03 17:53:00,
2013-02-03 13:00:00,24.0,-99.9,-100.00,WNW,294,10.0,13.0,-999,-99.99,,,-99.99,,2013-02-03 18:00:00,
2013-02-03 13:23:00,24.0,-99.9,-100.00,WNW,294,10.0,13.0,-999,-99.99,,,-99.99,,2013-02-03 18:23:00,
2013-02-03 13:33:00,24.0,-99.9,-100.00,WNW,294,10.0,13.0,-999,-99.99,,,-99.99,,2013-02-03 18:33:00,
2013-02-03 13:42:00,24.0,-99.9,-100.00,WNW,294,10.0,13.0,-999,-99.99,,,-99.99,,2013-02-03 18:42:00,
2013-02-03 13:52:00,24.0,-99.9,-100.00,WNW,294,10.0,13.0,-999,-99.99,,,-99.99,,2013-02-03 18:52:00,
2013-02-03 14:00:00,23.0,-99.9,-100.00,NNW,345,9.0,15.0,-999,-99.99,,,-99.99,,2013-02-03 19:00:00,
2013-02-03 14:22:00,23.0,-99.9,-100.00,NNW,345,9.0,15.0,-999,-99.99,,,-99.99,,2013-02-03 19:22:00,
2013-02-03 14:33:00,23.0,-99.9,-100.00,NNW,345,9.0,15.0,-999,-99.99,,,-99.99,,2013-02-03 19:33:00,
2013-02-03 14:42:00,23.0,-99.9,-100.00,NNW,345,9.0,15.0,-999,-99.99,,,-99.99,,2013-02-03 19:42:00,
2013-02-03 14:52:00,23.0,-99.9,-100.00,NNW,345,9.0,15.0,-999,-99.99,,,-99.99,,2013-02-03 19:52:00,
2013-02-03 15:00:00,24.0,-99.9,-100.00,North,354,6.0,9.0,-999,-99.99,,,-99.99,,2013-02-03 20:00:00,
2013-02-03 15:22:00,24.0,-99.9,-100.00,North,354,6.0,9.0,-999,-99.99,,,-99.99,,2013-02-03 20:22:00,
2013-02-03 15:33:00,24.0,-99.9,-100.00,North,354,6.0,9.0,-999,-99.99,,,-99.99,,2013-02-03 20:33:00,
2013-02-03 15:42:00,24.0,-99.9,-100.00,North,354,6.0,9.0,-999,-99.99,,,-99.99,,2013-02-03 20:42:00,
2013-02-03 15:52:00,24.0,-99.9,-100.00,North,354,6.0,9.0,-999,-99.99,,,-99.99,,2013-02-03 20:52:00,
2013-02-03 16:00:00,24.0,-99.9,-100.00,North,5,5.0,8.0,-999,-99.99,,,-99.99,,2013-02-03 21:00:00,
2013-02-03 16:22:00,24.0,-99.9,-100.00,North,5,5.0,8.0,-999,-99.99,,,-99.99,,2013-02-03 21:22:00,
2013-02-03 16:33:00,24.0,-99.9,-100.00,North,5,5.0,8.0,-999,-99.99,,,-99.99,,2013-02-03 21:33:00,
2013-02-03 16:43:00,24.0,-99.9,-100.00,North,5,5.0,8.0,-999,-99.99,,,-99.99,,2013-02-03 21:43:00,
2013-02-03 16:52:00,24.0,-99.9,-100.00,North,5,5.0,8.0,-999,-99.99,,,-99.99,,2013-02-03 21:52:00,
2013-02-03 17:00:00,24.0,-99.9,-100.00,NW,322,5.0,7.0,-999,-99.99,,,-99.99,,2013-02-03 22:00:00,
2013-02-03 17:22:00,24.0,-99.9,-100.00,NW,322,5.0,7.0,-999,-99.99,,,-99.99,,2013-02-03 22:22:00,
2013-02-03 17:32:00,24.0,-99.9,-100.00,NW,322,5.0,7.0,-999,-99.99,,,-99.99,,2013-02-03 22:32:00,
2013-02-03 17:42:00,24.0,-99.9,-100.00,NW,322,5.0,7.0,-999,-99.99,,,-99.99,,2013-02-03 22:42:00,
2013-02-03 17:52:00,24.0,-99.9,-100.00,NW,322,5.0,7.0,-999,-99.99,,,-99.99,,2013-02-03 22:52:00,
2013-02-03 18:00:00,23.0,-99.9,-100.00,NW,325,6.0,8.0,-999,-99.99,,,-99.99,,2013-02-03 23:00:00,
2013-02-03 18:22:00,23.0,-99.9,-100.00,NW,325,6.0,8.0,-999,-99.99,,,-99.99,,2013-02-03 23:22:00,
2013-02-03 18:33:00,23.0,-99.9,-100.00,NW,325,6.0,8.0,-999,-99.99,,,-99.99,,2013-02-03 23:33:00,
2013-02-03 18:42:00,23.0,-99.9,-100.00,NW,325,6.0,8.0,-999,-99.99,,,-99.99,,2013-02-03 23:42:00,
2013-02-03 18:52:00,23.0,-99.9,-100.00,NW,325,6.0,8.0,-999,-99.99,,,-99.99,,2013-02-03 23:52:00,
2013-02-03 19:00:00,23.0,-99.9,-100.00,NW,308,6.0,9.0,-999,-99.99,,,-99.99,,2013-02-04 00:00:00,
2013-02-03 19:22:00,23.0,-99.9,-100.00,NW,308,6.0,9.0,-999,-99.99,,,-99.99,,2013-02-04 00:22:00,
2013-02-03 19:32:00,23.0,-99.9,-100.00,NW,308,6.0,9.0,-999,-99.99,,,-99.99,,2013-02-04 00:32:00,
2013-02-03 19:42:00,23.0,-99.9,-100.00,NW,308,6.0,9.0,-999,-99.99,,,-99.99,,2013-02-04 00:42:00,
2013-02-03 19:52:00,23.0,-99.9,-100.00,NW,308,6.0,9.0,-999,-99.99,,,-99.99,,2013-02-04 00:52:00,
2013-02-03 20:00:00,22.0,-99.9,-100.00,WNW,292,9.0,12.0,-999,-99.99,,,-99.99,,2013-02-04 01:00:00,
2013-02-03 20:22:00,22.0,-99.9,-100.00,WNW,292,9.0,12.0,-999,-99.99,,,-99.99,,2013-02-04 01:22:00,
2013-02-03 20:32:00,22.0,-99.9,-100.00,WNW,292,9.0,12.0,-999,-99.99,,,-99.99,,2013-02-04 01:32:00,
2013-02-03 20:42:00,22.0,-99.9,-100.00,WNW,292,9.0,12.0,-999,-99.99,,,-99.99,,2013-02-04 01:42:00,
2013-02-03 20:52:00,22.0,-99.9,-100.00,WNW,292,9.0,12.0,-999,-99.99,,,-99.99,,2013-02-04 01:52:00,
2013-02-03 21:00:00,22.0,-99.9,-100.00,WNW,294,10.0,14.0,-999,-99.99,,,-99.99,,2013-02-04 02:00:00,
2013-02-03 21:22:00,22.0,-99.9,-100.00,WNW,294,10.0,14.0,-999,-99.99,,,-99.99,,2013-02-04 02:22:00,
2013-02-03 21:32:00,22.0,-99.9,-100.00,WNW,294,10.0,14.0,-999,-99.99,,,-99.99,,2013-02-04 02:32:00,
2013-02-03 21:42:00,22.0,-99.9,-100.00,WNW,294,10.0,14.0,-999,-99.99,,,-99.99,,2013-02-04 02:42:00,
2013-02-03 21:52:00,22.0,-99.9,-100.00,WNW,294,10.0,14.0,-999,-99.99,,,-99.99,,2013-02-04 02:52:00,
2013-02-03 22:00:00,22.0,-99.9,-100.00,NW,305,14.0,21.0,-999,-99.99,,,-99.99,,2013-02-04 03:00:00,
2013-02-03 22:22:00,22.0,-99.9,-100.00,NW,305,14.0,21.0,-999,-99.99,,,-99.99,,2013-02-04 03:22:00,
2013-02-03 22:32:00,22.0,-99.9,-100.00,NW,305,14.0,21.0,-999,-99.99,,,-99.99,,2013-02-04 03:32:00,
2013-02-03 22:42:00,22.0,-99.9,-100.00,NW,305,14.0,21.0,-999,-99.99,,,-99.99,,2013-02-04 03:42:00,
2013-02-03 22:52:00,22.0,-99.9,-100.00,NW,305,14.0,21.0,-999,-99.99,,,-99.99,,2013-02-04 03:52:00,
2013-02-03 23:00:00,21.0,-99.9,-100.00,NW,304,15.0,19.0,-999,-99.99,,,-99.99,,2013-02-04 04:00:00,
2013-02-03 23:22:00,21.0,-99.9,-100.00,NW,304,15.0,19.0,-999,-99.99,,,-99.99,,2013-02-04 04:22:00,
2013-02-03 23:32:00,21.0,-99.9,-100.00,NW,304,15.0,19.0,-999,-99.99,,,-99.99,,2013-02-04 04:32:00,
2013-02-03 23:42:00,21.0,-99.9,-100.00,NW,304,15.0,19.0,-999,-99.99,,,-99.99,,2013-02-04 04:42:00,
2013-02-03 23:52:00,21.0,-99.9,-100.00,NW,304,15.0,19.0,-999,-99.99,,,-99.99,,2013-02-04 04:52:00,